Location: Unspecified
(35.6961°N, 0.0000°E)
Time: 19:14:52
(UTC+00:00)

Vanguard 3 - Pass Details

Date: 02 June 2019
Orbit: 508 x 3263 km, 33.3° (Epoch: 17 June)

Event Time Altitude Azimuth Distance (km) Brightness Sun altitude
Rises 00:45:42 0° 271° (W) 4,257 10.7 -31.1°
Enters shadow 00:46:41 - 267° (W) 4,037 10.6 -31.0°
Reaches altitude 10° 00:48:46 10° 258° (WSW) 3,645 - -30.9°
Maximum altitude 00:56:29 26° 207° (SSW) 3,379 - -30.5°
Drops below altitude 10° 01:07:46 10° 159° (SSE) 5,458 - -29.9°
Sets 01:13:54 0° 149° (SSE) 6,845 - -29.4°
